EW9032 Weather Reports


time (UTC)temp
F
wind
direction
speed
knots
gust
knots
rain 1hr
in
rain 24hr
in
rain mn
in
humidity
%
barometer
mb
20260505053206 47 54 0.9 2.6 0.00 0.00 0.00 61 1010.1
20260505052705 47 54 0.9 1.7 0.00 0.00 0.00 60 1010.0
20260505052206 47 54 0.9 2.6 0.00 0.00 0.00 60 1009.8
20260505051706 47 54 0.0 2.6 0.00 0.00 0.00 60 1009.9
20260505051205 47 54 1.7 2.6 0.00 0.00 0.00 60 1010.1
20260505050705 47 54 0.0 2.6 0.00 0.00 0.00 60 1010.1
20260505050206 47 54 0.9 2.6 0.00 0.00 0.00 60 1010.1
20260505041705 48 53 2.6 4.3 0.00 0.00 0.00 59 1010.4
20260505040705 48 61 3.5 6.1 0.00 0.00 0.00 58 1010.3
20260505035705 48 31 3.5 7.8 0.00 0.00 0.00 58 1010.4
20260505035205 48 29 1.7 5.2 0.00 0.00 0.00 58 1010.3
20260505034705 48 28 2.6 5.2 0.00 0.00 0.00 58 1010.2
20260505034205 48 28 2.6 5.2 0.00 0.00 0.00 58 1010.1
20260505033705 48 28 2.6 7.0 0.00 0.00 0.00 58 1010.2
20260505033206 48 28 3.5 5.2 0.00 0.00 0.00 57 1010.0
20260505032705 48 32 4.3 7.8 0.00 0.00 0.00 57 1010.1
20260505032205 48 34 2.6 7.8 0.00 0.00 0.00 56 1010.1
20260505031705 48 21 5.2 8.7 0.00 0.00 0.00 56 1009.9
20260505031205 49 31 6.1 10.4 0.00 0.00 0.00 55 1010.0
20260505030205 49 35 6.1 11.3 0.00 0.00 0.00 52 1010.0
20260505025205 50 34 6.1 10.4 0.00 0.00 0.00 49 1010.1
20260505024705 50 42 5.2 10.4 0.00 0.00 0.00 48 1009.9
20260505024205 50 35 4.3 10.4 0.00 0.00 0.00 47 1009.7
20260505023204 50 37 4.3 8.7 0.00 0.00 0.00 46 1009.7
20260505022705 50 32 2.6 7.0 0.00 0.00 0.00 46 1009.7
20260505022205 51 31 4.3 10.4 0.00 0.00 0.00 45 1009.7
20260505021705 51 35 4.3 8.7 0.00 0.00 0.00 46 1009.4
20260505021205 51 29 3.5 7.8 0.00 0.00 0.00 46 1009.3
20260505020705 51 44 4.3 7.8 0.00 0.00 0.00 46 1009.2
20260505020205 51 29 2.6 7.8 0.00 0.00 0.00 46 1009.2
20260505015705 51 29 4.3 8.7 0.00 0.00 0.00 46 1009.2
20260505015204 51 49 4.3 7.8 0.00 0.00 0.00 46 1009.0
20260505014205 51 29 4.3 8.7 0.00 0.00 0.00 46 1008.9
20260505013705 51 33 6.1 11.3 0.00 0.00 0.00 45 1008.8
20260505013205 52 25 6.1 10.4 0.00 0.00 0.00 45 1008.8
20260505012205 52 30 7.0 11.3 0.00 0.00 0.00 44 1008.8
20260505011705 52 30 6.1 10.4 0.00 0.00 0.00 44 1008.7
20260505011205 52 28 6.1 11.3 0.00 0.00 0.00 43 1008.7
20260505010205 53 47 4.3 7.8 0.00 0.00 0.00 45 1008.7
20260505005705 53 45 4.3 7.8 0.00 0.00 0.00 45 1008.6
20260505005206 53 57 4.3 10.4 0.00 0.00 0.00 45 1008.5
20260505004705 53 36 4.3 10.4 0.00 0.00 0.00 45 1008.5
20260505004205 53 23 5.2 10.4 0.00 0.00 0.00 45 1008.4
20260505003705 53 36 4.3 10.4 0.00 0.00 0.00 46 1008.4
20260505003205 53 42 4.3 6.1 0.00 0.00 0.00 47 1008.4
20260505002705 53 47 6.1 10.4 0.00 0.00 0.00 46 1008.3
20260505002205 53 37 3.5 7.8 0.00 0.00 0.00 47 1008.2
20260505001205 53 51 6.1 10.4 0.00 0.00 0.00 47 1008.2
20260504235205 54 49 7.0 13.0 0.00 0.00 0.00 45 1008.2
20260504234704 54 40 7.8 13.9 0.00 0.00 0.00 45 1008.2
20260504234204 54 35 7.0 11.3 0.00 0.00 0.00 45 1008.2
20260504233205 54 31 7.8 12.2 0.00 0.00 0.00 46 1008.2
20260504232705 54 40 7.8 13.0 0.00 0.00 0.00 46 1008.1
20260504232205 54 34 7.8 12.2 0.00 0.01 0.00 47 1007.9
20260504231705 54 37 6.1 12.2 0.00 0.01 0.00 49 1007.9
20260504230205 53 33 7.0 15.6 0.00 0.03 0.00 50 1007.7
20260504224705 54 19 6.1 12.2 0.00 0.13 0.00 50 1007.5
20260504224205 54 22 7.0 13.9 0.00 0.13 0.00 49 1007.4
20260504223705 54 20 8.7 13.0 0.00 0.13 0.00 49 1007.5
20260504223205 55 17 7.8 13.0 0.00 0.13 0.00 49 1007.4
20260504222704 55 17 9.6 17.4 0.00 0.13 0.00 48 1007.5
20260504222205 56 7 9.6 14.8 0.00 0.13 0.00 47 1007.5
20260504221705 56 34 7.8 15.6 0.00 0.13 0.00 48 1007.4
20260504221205 56 31 8.7 14.8 0.00 0.13 0.00 47 1007.3
20260504220704 55 20 7.8 15.6 0.00 0.13 0.00 47 1007.2
20260504220204 56 32 9.6 17.4 0.00 0.13 0.00 45 1007.2
20260504215705 57 31 9.6 17.4 0.00 0.13 0.00 44 1007.1
20260504215205 56 17 7.8 12.2 0.00 0.13 0.00 44 1007.2
20260504214205 57 29 9.6 15.6 0.00 0.13 0.00 43 1007.0
20260504213705 57 39 8.7 13.9 0.00 0.13 0.00 43 1006.9
20260504213205 58 40 7.8 14.8 0.00 0.13 0.00 43 1006.9
20260504212705 59 40 7.8 13.0 0.00 0.13 0.00 41 1006.8
20260504212204 59 27 7.8 13.9 0.00 0.13 0.00 42 1006.8
20260504211704 58 27 7.8 12.2 0.00 0.13 0.00 41 1006.9
20260504211204 58 37 8.7 17.4 0.00 0.13 0.00 42 1006.9
20260504210705 58 28 7.8 13.9 0.00 0.13 0.00 42 1006.8
20260504210205 58 19 10.4 15.6 0.00 0.13 0.00 42 1006.8
20260504205705 57 44 8.7 13.0 0.00 0.13 0.00 43 1006.9
20260504205206 57 23 9.6 14.8 0.00 0.13 0.00 43 1007.0
20260504204204 58 31 7.8 14.8 0.00 0.13 0.00 41 1007.1
20260504203205 58 14 6.1 10.4 0.00 0.13 0.00 41 1007.0
20260504202705 59 23 7.8 12.2 0.00 0.13 0.00 40 1007.1
20260504202204 59 18 7.8 13.0 0.00 0.13 0.00 40 1007.0
20260504201705 59 7 7.0 13.0 0.00 0.13 0.00 40 1007.1
20260504201204 59 39 8.7 13.9 0.00 0.13 0.00 41 1006.9
20260504200704 60 37 6.1 13.0 0.00 0.13 0.00 39 1006.9
20260504195704 60 6 7.0 13.0 0.00 0.13 0.00 40 1006.9
20260504195204 60 6 6.1 12.2 0.00 0.13 0.00 41 1006.9
20260504194705 59 348 6.1 13.9 0.00 0.13 0.00 41 1006.9
20260504194204 59 19 8.7 12.2 0.00 0.13 0.00 41 1006.9
20260504193704 59 343 7.0 11.3 0.00 0.13 0.00 40 1007.0
20260504192204 59 22 8.7 17.4 0.00 0.13 0.00 40 1006.7
20260504191705 59 45 9.6 14.8 0.00 0.13 0.00 41 1006.7
20260504191205 59 36 8.7 15.6 0.00 0.13 0.00 39 1006.7
20260504190705 59 14 7.8 14.8 0.00 0.13 0.00 41 1006.7
20260504185705 59 30 9.6 18.2 0.00 0.13 0.00 41 1006.9
20260504185204 59 32 8.7 14.8 0.00 0.13 0.00 40 1006.8
20260504184704 60 4 7.8 13.9 0.00 0.13 0.00 40 1007.0
20260504183705 60 353 8.7 14.8 0.00 0.13 0.00 41 1007.3
20260504183205 59 9 7.8 13.9 0.00 0.13 0.00 42 1007.1
20260504182705 59 6 7.0 11.3 0.00 0.13 0.00 43 1007.2
20260504182204 59 16 8.7 13.9 0.00 0.13 0.00 43 1007.2
20260504181705 58 0 9.6 20.0 0.00 0.13 0.00 45 1007.0
20260504181204 57 38 10.4 17.4 0.00 0.13 0.00 45 1007.1
20260504180704 57 34 7.8 13.0 0.00 0.13 0.00 44 1007.1
20260504175204 58 17 11.3 17.4 0.00 0.13 0.00 44 1007.1
20260504174704 58 36 7.0 15.6 0.00 0.13 0.00 46 1007.1
20260504174204 57 13 9.6 15.6 0.00 0.13 0.00 44 1007.2
20260504173704 58 31 7.8 17.4 0.00 0.13 0.00 45 1007.0
20260504173204 57 33 7.8 13.0 0.00 0.13 0.00 45 1006.8
20260504172704 57 45 7.8 17.4 0.00 0.13 0.00 46 1006.7
20260504171704 57 38 11.3 17.4 0.00 0.13 0.00 44 1007.0
20260504171204 57 34 7.8 17.4 0.00 0.13 0.00 43 1007.0
20260504170204 58 20 7.8 14.8 0.00 0.13 0.00 45 1006.9
20260504150204 54 29 10.4 14.8 0.00 0.13 0.00 49 1005.9
20260504141204 52 39 10.4 15.6 0.00 0.13 0.00 63 1005.5
20260504140704 52 42 7.8 13.9 0.00 0.13 0.00 65 1005.5
20260504140204 52 32 7.0 15.6 0.00 0.13 0.00 64 1005.6
20260504130704 52 280 2.6 6.1 0.00 0.13 0.00 59 1004.3
20260504130204 51 256 4.3 12.2 0.00 0.13 0.00 58 1003.9
20260504120203 50 201 4.3 7.8 0.00 0.13 0.00 60 1002.1
20260504110203 46 217 4.3 4.3 0.00 0.13 0.00 71 1002.2
20260504081706 48 225 4.3 5.2 0.00 0.13 0.00 74 1003.0
20260504081205 48 226 4.3 6.1 0.00 0.13 0.00 75 1003.0
20260504080705 48 232 4.3 5.2 0.00 0.13 0.00 76 1003.0
20260504080205 48 232 3.5 4.3 0.00 0.13 0.00 76 1003.1
20260504060205 52 212 0.9 1.7 0.00 0.13 0.00 70 1003.6